Location: Newark
(48.0000°N, 67.0000°E)
Time: 16:12:18
(UTC+00:00)

SR - All Passes

Search period start: 26 February 2020 00:00
Search period end: 07 March 2020 00:00
Orbit: 575 x 880 km, 66.7° (Epoch: 25 February)

Date Brightness Start Highest point End Pass type
(mag) Time Alt. Az. Time Alt. Az. Time Alt. Az.
26 Feb - 09:34:32 10° S 09:40:14 50° ESE 09:45:50 10° NE daylight
26 Feb - 11:17:01 10° WSW 11:22:32 39° NW 11:27:54 10° NNE daylight
26 Feb - 13:03:02 10° NW 13:06:14 15° NNW 13:09:21 10° NNE daylight
26 Feb - 14:49:22 10° N 14:50:51 11° N 14:52:20 10° NNE visible
26 Feb - 16:31:09 10° NNW 16:35:12 21° NNE 16:39:00 10° E visible
26 Feb - 18:12:52 10° NNW 18:18:14 78° NE 18:23:05 10° SE visible
26 Feb - 19:56:22 10° WNW 19:59:32 17° WSW 20:02:34 10° SW night (unlit)
27 Feb - 08:45:49 10° SSE 08:50:48 29° ESE 08:55:42 10° NE daylight
27 Feb - 10:26:44 10° SW 10:32:36 62° NW 10:38:20 10° NNE daylight
27 Feb - 12:11:40 10° WNW 12:15:50 19° NNW 12:19:54 10° NNE daylight
27 Feb - 13:58:49 10° NNW 14:00:15 11° N 14:01:40 10° N visible
27 Feb - 15:41:41 10° NNW 15:44:51 15° NNE 15:47:52 10° ENE visible
27 Feb - 17:23:14 10° NNW 17:28:24 45° NE 17:33:06 10° ESE visible
27 Feb - 19:05:44 10° NW 19:10:18 32° WSW 19:14:31 10° S visible
28 Feb - 07:58:07 10° SE 08:01:31 16° ESE 08:04:55 10° ENE daylight
28 Feb - 09:36:55 10° SSW 09:42:52 82° ESE 09:48:40 10° NE daylight
28 Feb - 11:20:38 10° W 11:25:36 27° NW 11:30:25 10° NNE daylight
28 Feb - 13:07:26 10° NW 13:09:41 12° NNW 13:11:52 10° N daylight
28 Feb - 14:52:11 10° N 14:54:21 12° NNE 14:56:28 10° NE visible
28 Feb - 16:33:42 10° NNW 16:38:22 29° NE 16:42:41 10° E visible
28 Feb - 18:15:41 10° NW 18:20:53 61° WSW 18:25:35 10° SSE visible
29 Feb - 08:47:37 10° S 08:53:16 48° ESE 08:58:49 10° NE daylight
29 Feb - 10:29:58 10° WSW 10:35:32 40° NW 10:40:56 10° NNE daylight
29 Feb - 12:15:55 10° NW 12:19:11 15° NNW 12:22:22 10° NNE daylight
29 Feb - 14:02:26 10° N 14:03:48 11° N 14:05:08 10° NNE visible
29 Feb - 15:44:13 10° NNW 15:48:09 20° NNE 15:51:51 10° ENE visible
29 Feb - 17:25:55 10° NNW 17:31:14 74° NE 17:36:03 10° SE visible
29 Feb - 19:09:16 10° WNW 19:12:35 18° WSW 19:15:43 10° SSW visible
01 Mar - 07:58:59 10° SSE 08:03:51 27° ESE 08:08:39 10° NE daylight
01 Mar - 09:39:44 10° SW 09:45:38 65° NW 09:51:21 10° NNE daylight
01 Mar - 11:24:35 10° WNW 11:28:48 20° NNW 11:32:55 10° NNE daylight
01 Mar - 13:11:48 10° NNW 13:13:11 11° N 13:14:34 10° N daylight
01 Mar - 14:54:46 10° NNW 14:57:47 15° NNE 15:00:41 10° NE visible
01 Mar - 16:36:17 10° NNW 16:41:23 43° NE 16:46:01 10° ESE visible
01 Mar - 18:18:43 10° NW 18:23:20 33° WSW 18:27:35 10° S visible
02 Mar - 07:11:26 10° SE 07:14:36 15° ESE 07:17:45 10° ENE daylight
02 Mar - 08:49:57 10° SSW 08:55:53 78° ESE 09:01:40 10° NE daylight
02 Mar - 10:33:35 10° W 10:38:35 28° NW 10:43:26 10° NNE daylight
02 Mar - 12:20:20 10° NW 12:22:37 12° NNW 12:24:52 10° N daylight
02 Mar - 14:05:16 10° N 14:07:17 12° NNE 14:09:16 10° NE visible
02 Mar - 15:46:46 10° NNW 15:51:20 27° NE 15:55:34 10° E visible
02 Mar - 17:28:42 10° NW 17:33:53 64° WSW 17:38:35 10° SSE visible
03 Mar - 08:00:44 10° S 08:06:19 45° ESE 08:11:48 10° NE daylight
03 Mar - 09:42:57 10° WSW 09:48:32 42° NW 09:53:57 10° NNE daylight
03 Mar - 11:28:49 10° WNW 11:32:08 15° NNW 11:35:22 10° NNE daylight
03 Mar - 13:15:31 10° N 13:16:43 11° N 13:17:55 10° NNE daylight
03 Mar - 14:57:17 10° NNW 15:01:06 19° NNE 15:04:42 10° ENE visible
03 Mar - 16:38:57 10° NNW 16:44:14 70° NE 16:49:01 10° SE visible
03 Mar - 18:22:11 10° WNW 18:25:38 19° WSW 18:28:53 10° SSW visible
04 Mar - 07:12:09 10° SSE 07:16:54 26° ESE 07:21:36 10° NE daylight
04 Mar - 08:52:44 10° SW 08:58:39 67° NW 09:04:22 10° NNE daylight
04 Mar - 10:37:29 10° WNW 10:41:46 20° NNW 10:45:55 10° NNE daylight
04 Mar - 12:24:46 10° NNW 12:26:08 11° N 12:27:28 10° N daylight
04 Mar - 14:07:51 10° NNW 14:10:43 14° NNE 14:13:30 10° NE visible
04 Mar - 15:49:20 10° NNW 15:54:22 41° NE 15:58:57 10° ESE visible
04 Mar - 17:31:43 10° NW 17:36:23 35° WSW 17:40:39 10° S visible
05 Mar - 06:24:45 10° SE 06:27:40 14° ESE 06:30:34 10° ENE daylight
05 Mar - 08:03:01 10° SSW 08:08:55 74° ESE 08:14:41 10° NE daylight
05 Mar - 09:46:30 10° W 09:51:34 29° NW 09:56:28 10° NNE daylight
05 Mar - 11:33:14 10° NW 11:35:33 12° NNW 11:37:50 10° N daylight
05 Mar - 13:18:22 10° N 13:20:13 12° NNE 13:22:02 10° NNE daylight
05 Mar - 14:59:49 10° NNW 15:04:18 26° NE 15:08:26 10° E visible
05 Mar - 16:41:43 10° NW 16:46:54 68° WSW 16:51:35 10° SSE visible
06 Mar - 07:13:49 10° S 07:19:22 43° ESE 07:24:47 10° NE daylight
06 Mar - 08:55:55 10° WSW 09:01:32 44° NW 09:06:58 10° NNE daylight
06 Mar - 10:41:42 10° WNW 10:45:05 16° NNW 10:48:22 10° NNE daylight
06 Mar - 12:28:35 10° N 12:29:39 10° N 12:30:41 10° NNE daylight
06 Mar - 14:10:22 10° NNW 14:14:03 18° NNE 14:17:33 10° ENE visible
06 Mar - 15:51:59 10° NNW 15:57:13 67° NE 16:01:58 10° SE visible
06 Mar - 17:35:08 10° WNW 17:38:40 19° WSW 17:42:02 10° SSW visible
